Location: Zagreb
(45.8000°N, 16.0000°E)
Time: 17:29:52
(UTC+01:00)

Tiros 1 despin weight - Pass Details

Date: 28 January 2020
Orbit: 594 x 642 km, 48.2° (Epoch: 25 February)

Event Time Altitude Azimuth Distance (km) Brightness Sun altitude
Rises 13:10:13 0° 278° (W) 2,877 ? 24.4°
Reaches altitude 10° 13:12:31 10° 282° (WNW) 1,980 ? 24.3°
Maximum altitude 13:17:03 65° 4° (N) 688 ? 24.1°
Drops below altitude 10° 13:21:39 10° 87° (E) 2,008 ? 23.9°
Sets 13:24:00 0° 90° (E) 2,922 ? 23.7°
